Weather in Klevan

Ukraine / Rovno District     50°44′45″N   26°00′47″E
temp.,
°C
wind,
m/s
gust,
m/s
humid.,
%
clouds,
%
prec.,
mm/h
press.,
hPa
HPBL,
m
16 june, wed
wed1600:00+14nnw3485100 0.0 101657
03:00+13n349255 0.0 101659
06:00+13n349251 0.0 101668
09:00+18n45805 0.0 1017442
12:00+22nne45715 1.7 1017945
15:00+23nne56625 2.3 10171376
18:00+23n67660 0.1 10161043
21:00+17n48834 0.1 1018151
17 june, thu
thu1700:00+13nne34852 0.0 101945
03:00+12nne33860 0.0 102030
06:00+12nne22900 0.0 102136
09:00+18ne34740 0.0 1022350
12:00+22ne34660 0.0 1022986
15:00+25ene345619 0.0 10211631
18:00+24ne3566100 0.0 1020982
21:00+20e228071 0.1 102227
18 june, fri
fri1800:00+17e33910 0.0 102333
03:00+15e34920 0.0 102351
06:00+15e35945 0.0 102398
09:00+20e46770 0.0 1023503
12:00+23e45610 0.0 10231080
15:00+25e56540 0.0 10221443
18:00+25ese46670 0.0 10211275
21:00+20ese37844 0.0 1022136
19 june, sat
sat1900:00+17ese37930 0.0 1022138
03:00+17ese35952 0.0 102285
06:00+16ese36965 0.0 1023132
09:00+21ese46810 0.0 1022469
12:00+24ese556857 0.1 10211383
15:00+25ese45564 0.1 10201752
18:00+25e45644 0.0 10191371
21:00+19se38870 0.1 1020194
20 june, sun
sun2000:00+17se389441 0.0 1020148
03:00+16se339513 0.0 102057
06:00+16ese35955 0.0 1020107
09:00+21ese467734 0.0 1020424
12:00+23ese45675 0.1 1019865
15:00+24ese4572100 1.8 10181078
18:00+25ese3570100 0.6 10171053
21:00+21ese368794 1.4 101799